| time (UTC) | temp C | wind direction | speed KPH | gust KPH | rain 1hr cm | rain 24hr cm | rain mn cm | humidity % | barometer mb |
| 20260504232015 | 11 | 193 | 11.3 | 27.4 | 0.00 | 0.18 | 0.00 | 67 | 1005.9 |
| 20260504231531 | 11 | 212 | 11.3 | 27.4 | 0.00 | 0.18 | 0.00 | 67 | 1005.8 |
| 20260504231019 | 11 | 166 | 9.7 | 19.3 | 0.00 | 0.18 | 0.00 | 67 | 1005.8 |
| 20260504230514 | 11 | 171 | 6.4 | 20.9 | 0.00 | 0.18 | 0.00 | 66 | 1005.7 |
| 20260504230033 | 11 | 195 | 8.0 | 25.7 | 0.00 | 0.18 | 0.00 | 66 | 1005.6 |
| 20260504225517 | 11 | 164 | 9.7 | 25.7 | 0.00 | 0.51 | 0.00 | 66 | 1005.4 |
| 20260504225015 | 11 | 185 | 9.7 | 27.4 | 0.00 | 0.51 | 0.00 | 65 | 1005.3 |
| 20260504224530 | 11 | 195 | 12.9 | 27.4 | 0.00 | 0.51 | 0.00 | 64 | 1005.3 |
| 20260504224018 | 11 | 198 | 12.9 | 27.4 | 0.00 | 0.51 | 0.00 | 64 | 1005.2 |
| 20260504223514 | 11 | 222 | 11.3 | 27.4 | 0.00 | 0.51 | 0.00 | 64 | 1005.2 |
| 20260504223032 | 11 | 209 | 11.3 | 27.4 | 0.00 | 0.51 | 0.00 | 64 | 1005.2 |
| 20260504222515 | 11 | 211 | 11.3 | 30.6 | 0.00 | 0.51 | 0.00 | 65 | 1005.2 |
| 20260504222014 | 11 | 184 | 11.3 | 35.4 | 0.00 | 0.51 | 0.00 | 65 | 1005.1 |
| 20260504221536 | 10 | 243 | 14.5 | 35.4 | 0.00 | 0.51 | 0.00 | 66 | 1005.1 |
| 20260504221014 | 10 | 183 | 12.9 | 29.0 | 0.00 | 0.51 | 0.00 | 67 | 1005.2 |
| 20260504220514 | 10 | 205 | 12.9 | 30.6 | 0.00 | 0.51 | 0.00 | 69 | 1005.1 |
| 20260504220045 | 10 | 253 | 11.3 | 30.6 | 0.00 | 0.51 | 0.00 | 70 | 1005.2 |
| 20260504215518 | 9 | 167 | 14.5 | 30.6 | 0.00 | 0.79 | 0.00 | 71 | 1005.1 |
| 20260504215017 | 9 | 178 | 11.3 | 27.4 | 0.00 | 0.79 | 0.00 | 72 | 1005.2 |
| 20260504214536 | 9 | 202 | 11.3 | 27.4 | 0.00 | 0.79 | 0.00 | 72 | 1005.3 |
| 20260504214014 | 9 | 199 | 9.7 | 24.1 | 0.00 | 0.79 | 0.00 | 71 | 1005.4 |
| 20260504213514 | 9 | 168 | 11.3 | 27.4 | 0.00 | 0.79 | 0.00 | 71 | 1005.4 |
| 20260504213041 | 10 | 191 | 11.3 | 30.6 | 0.00 | 0.79 | 0.00 | 70 | 1005.4 |
| 20260504212514 | 10 | 181 | 12.9 | 30.6 | 0.00 | 0.79 | 0.00 | 69 | 1005.3 |
| 20260504212017 | 10 | 236 | 12.9 | 33.8 | 0.00 | 0.79 | 0.00 | 67 | 1005.2 |
| 20260504211539 | 10 | 199 | 16.1 | 35.4 | 0.00 | 0.79 | 0.00 | 66 | 1005.4 |
| 20260504211014 | 10 | 210 | 14.5 | 37.0 | 0.00 | 0.79 | 0.00 | 65 | 1005.4 |
| 20260504210516 | 10 | 162 | 14.5 | 37.0 | 0.00 | 0.79 | 0.00 | 65 | 1005.5 |
| 20260504210033 | 10 | 171 | 14.5 | 46.7 | 0.00 | 0.79 | 0.00 | 65 | 1005.2 |
| 20260504205515 | 10 | 247 | 17.7 | 46.7 | 0.00 | 0.97 | 0.00 | 65 | 1005.1 |
| 20260504205014 | 10 | 238 | 19.3 | 43.5 | 0.00 | 0.97 | 0.00 | 65 | 1005.1 |
| 20260504204540 | 10 | 135 | 16.1 | 43.5 | 0.00 | 0.97 | 0.00 | 67 | 1005.1 |
| 20260504204015 | 10 | 199 | 17.7 | 49.9 | 0.00 | 0.97 | 0.00 | 68 | 1005.0 |
| 20260504203517 | 10 | 212 | 20.9 | 49.9 | 0.00 | 0.97 | 0.00 | 69 | 1005.0 |
| 20260504203033 | 9 | 250 | 16.1 | 43.5 | 0.00 | 0.97 | 0.00 | 72 | 1005.0 |
| 20260504202516 | 8 | 203 | 16.1 | 43.5 | 0.00 | 0.97 | 0.00 | 74 | 1005.0 |
| 20260504202015 | 8 | 176 | 17.7 | 41.8 | 0.00 | 0.97 | 0.00 | 76 | 1005.1 |
| 20260504201533 | 8 | 214 | 19.3 | 40.2 | 0.00 | 0.97 | 0.00 | 74 | 1005.2 |
| 20260504201014 | 9 | 219 | 16.1 | 38.6 | 0.00 | 0.97 | 0.00 | 73 | 1005.1 |
| 20260504200514 | 8 | 198 | 20.9 | 38.6 | 0.00 | 0.97 | 0.00 | 76 | 1005.1 |
| 20260504200033 | 8 | 254 | 12.9 | 38.6 | 0.00 | 0.97 | 0.00 | 77 | 1005.0 |
| 20260504195514 | 8 | 208 | 11.3 | 32.2 | 0.00 | 1.22 | 0.00 | 76 | 1005.2 |
| 20260504195015 | 8 | 256 | 11.3 | 41.8 | 0.00 | 1.22 | 0.00 | 76 | 1005.1 |
| 20260504194532 | 8 | 256 | 14.5 | 41.8 | 0.00 | 1.22 | 0.00 | 76 | 1005.0 |
| 20260504194015 | 8 | 231 | 12.9 | 35.4 | 0.00 | 1.22 | 0.00 | 76 | 1004.9 |
| 20260504193515 | 8 | 192 | 16.1 | 29.0 | 0.00 | 1.22 | 0.00 | 75 | 1004.8 |
| 20260504193031 | 8 | 175 | 16.1 | 33.8 | 0.00 | 1.22 | 0.00 | 75 | 1004.8 |
| 20260504192514 | 8 | 218 | 12.9 | 33.8 | 0.00 | 1.22 | 0.00 | 73 | 1004.8 |
| 20260504192014 | 9 | 194 | 16.1 | 30.6 | 0.00 | 1.22 | 0.00 | 73 | 1004.7 |
| 20260504191535 | 10 | 220 | 14.5 | 30.6 | 0.00 | 1.22 | 0.00 | 72 | 1004.7 |
| 20260504191014 | 10 | 137 | 12.9 | 30.6 | 0.00 | 1.22 | 0.00 | 73 | 1004.8 |
| 20260504190518 | 9 | 233 | 11.3 | 29.0 | 0.00 | 1.22 | 0.00 | 73 | 1004.6 |
| 20260504190034 | 8 | 225 | 12.9 | 25.7 | 0.00 | 1.22 | 0.00 | 72 | 1004.7 |
| 20260504185515 | 8 | 240 | 12.9 | 32.2 | 0.00 | 1.42 | 0.00 | 72 | 1004.7 |
| 20260504185019 | 8 | 179 | 12.9 | 32.2 | 0.00 | 1.42 | 0.00 | 71 | 1004.7 |
| 20260504184530 | 9 | 216 | 12.9 | 29.0 | 0.00 | 1.42 | 0.00 | 69 | 1004.8 |
| 20260504184017 | 10 | 231 | 11.3 | 29.0 | 0.00 | 1.42 | 0.00 | 68 | 1004.8 |
| 20260504183516 | 10 | 184 | 12.9 | 30.6 | 0.00 | 1.42 | 0.00 | 68 | 1004.9 |
| 20260504183036 | 10 | 106 | 12.9 | 30.6 | 0.00 | 1.42 | 0.00 | 67 | 1004.9 |
| 20260504182514 | 10 | 258 | 14.5 | 37.0 | 0.00 | 1.42 | 0.00 | 69 | 1004.9 |
| 20260504182016 | 9 | 232 | 16.1 | 37.0 | 0.00 | 1.42 | 0.00 | 68 | 1004.9 |
| 20260504181535 | 10 | 178 | 12.9 | 37.0 | 0.00 | 1.42 | 0.00 | 68 | 1005.0 |
| 20260504181015 | 10 | 218 | 9.7 | 32.2 | 0.00 | 1.42 | 0.00 | 67 | 1005.0 |
| 20260504180514 | 9 | 249 | 11.3 | 32.2 | 0.00 | 1.42 | 0.00 | 67 | 1005.0 |
| 20260504180045 | 9 | 191 | 14.5 | 32.2 | 0.00 | 1.42 | 0.00 | 67 | 1004.9 |
| 20260504175517 | 9 | 206 | 11.3 | 30.6 | 0.00 | 1.85 | 0.00 | 69 | 1005.0 |
| 20260504175017 | 9 | 205 | 11.3 | 32.2 | 0.00 | 1.85 | 0.00 | 70 | 1005.0 |
| 20260504174531 | 9 | 187 | 11.3 | 37.0 | 0.00 | 1.85 | 0.00 | 71 | 1005.0 |
| 20260504174014 | 8 | 210 | 14.5 | 37.0 | 0.00 | 1.85 | 0.00 | 71 | 1005.1 |
| 20260504173514 | 8 | 197 | 16.1 | 32.2 | 0.00 | 1.85 | 0.00 | 71 | 1005.0 |
| 20260504173032 | 8 | 179 | 14.5 | 32.2 | 0.00 | 1.85 | 0.00 | 70 | 1005.0 |
| 20260504172514 | 8 | 215 | 11.3 | 32.2 | 0.00 | 1.85 | 0.00 | 70 | 1005.0 |
| 20260504172019 | 9 | 243 | 12.9 | 33.8 | 0.00 | 1.85 | 0.00 | 70 | 1005.0 |
| 20260504171530 | 8 | 119 | 12.9 | 35.4 | 0.00 | 1.85 | 0.00 | 68 | 1005.1 |
| 20260504171017 | 8 | 286 | 16.1 | 35.4 | 0.00 | 1.85 | 0.00 | 68 | 1005.1 |
| 20260504170515 | 8 | 200 | 12.9 | 30.6 | 0.00 | 1.85 | 0.00 | 68 | 1005.1 |
| 20260504151016 | 7 | 216 | 16.1 | 40.2 | 0.00 | 3.33 | 0.00 | 76 | 1005.6 |
| 20260504150517 | 7 | 202 | 14.5 | 32.2 | 0.00 | 3.33 | 0.00 | 76 | 1005.6 |
| 20260504141015 | 6 | 213 | 16.1 | 37.0 | 0.00 | 3.51 | 0.00 | 75 | 1005.8 |
| 20260504140516 | 6 | 200 | 12.9 | 37.0 | 0.00 | 3.51 | 0.00 | 76 | 1005.8 |
| 20260504130516 | 5 | 206 | 17.7 | 37.0 | 0.00 | 3.51 | 0.00 | 80 | 1005.1 |
| 20260504110516 | 4 | 186 | 12.9 | 38.6 | 0.00 | 3.51 | 0.00 | 86 | 1003.2 |
| 20260504100514 | 4 | 239 | 11.3 | 33.8 | 0.00 | 3.51 | 0.00 | 89 | 1002.4 |
| 20260504081609 | 4 | 320 | 9.7 | 22.5 | 0.00 | 3.51 | 0.00 | 91 | 999.8 |
| 20260504081015 | 4 | 197 | 6.4 | 24.1 | 0.00 | 3.51 | 0.00 | 91 | 999.8 |
| 20260504080514 | 4 | 198 | 9.7 | 24.1 | 0.00 | 3.51 | 0.00 | 91 | 999.8 |
| 20260504050515 | 3 | 307 | 16.1 | 37.0 | 0.00 | 3.51 | 0.00 | 92 | 997.5 |
| 20260504045515 | 3 | 283 | 22.5 | 38.6 | 0.00 | 3.51 | 0.00 | 92 | 997.3 |
| 20260504045015 | 3 | 288 | 22.5 | 37.0 | 0.00 | 3.51 | 0.00 | 92 | 997.2 |
| 20260504044537 | 3 | 279 | 22.5 | 38.6 | 0.00 | 3.51 | 0.00 | 92 | 997.1 |
| 20260504044017 | 3 | 283 | 24.1 | 38.6 | 0.00 | 3.51 | 0.00 | 91 | 997.1 |
| 20260504043515 | 3 | 333 | 22.5 | 38.6 | 0.00 | 3.51 | 0.00 | 92 | 996.9 |
| 20260504043041 | 3 | 288 | 22.5 | 38.6 | 0.00 | 3.51 | 0.00 | 91 | 996.8 |
| 20260504042516 | 3 | 306 | 17.7 | 41.8 | 0.00 | 3.51 | 0.00 | 91 | 996.8 |
| 20260504042017 | 3 | 328 | 22.5 | 41.8 | 0.00 | 3.51 | 0.00 | 91 | 996.7 |
| 20260504041532 | 3 | 319 | 22.5 | 40.2 | 0.00 | 3.51 | 0.00 | 91 | 996.7 |
| 20260504041015 | 3 | 329 | 19.3 | 40.2 | 0.00 | 3.51 | 0.00 | 91 | 996.6 |
| 20260504040515 | 3 | 307 | 17.7 | 45.1 | 0.00 | 3.51 | 0.00 | 91 | 996.6 |
| 20260504040029 | 3 | 320 | 19.3 | 45.1 | 0.00 | 3.51 | 0.00 | 91 | 996.6 |
| 20260504035516 | 3 | 316 | 17.7 | 37.0 | 0.00 | 3.51 | 0.00 | 91 | 996.5 |
| 20260504035015 | 3 | 316 | 17.7 | 37.0 | 0.00 | 3.51 | 0.00 | 91 | 996.5 |
| 20260504034531 | 3 | 308 | 17.7 | 40.2 | 0.00 | 3.51 | 0.00 | 91 | 996.4 |
| 20260504034014 | 3 | 342 | 17.7 | 41.8 | 0.00 | 3.51 | 0.00 | 91 | 996.3 |
| 20260504033517 | 3 | 4 | 19.3 | 41.8 | 0.00 | 3.51 | 0.00 | 91 | 996.1 |
| 20260504033030 | 3 | 358 | 17.7 | 41.8 | 0.00 | 3.51 | 0.00 | 91 | 996.1 |
| 20260504032517 | 3 | 339 | 19.3 | 41.8 | 0.00 | 3.51 | 0.00 | 91 | 996.1 |
| 20260504032015 | 3 | 354 | 20.9 | 40.2 | 0.00 | 3.51 | 0.00 | 91 | 996.0 |
| 20260504031530 | 3 | 348 | 19.3 | 37.0 | 0.00 | 3.51 | 0.00 | 91 | 995.9 |
| 20260504031015 | 3 | 318 | 20.9 | 37.0 | 0.00 | 3.51 | 0.00 | 91 | 995.8 |
| 20260504030514 | 3 | 341 | 19.3 | 37.0 | 0.00 | 3.51 | 0.00 | 91 | 995.6 |
| 20260504030030 | 3 | 335 | 20.9 | 37.0 | 0.00 | 3.51 | 0.00 | 91 | 995.5 |
| 20260504025515 | 3 | 339 | 19.3 | 32.2 | 0.00 | 3.51 | 3.51 | 91 | 995.5 |
| 20260504025015 | 3 | 352 | 20.9 | 37.0 | 0.00 | 3.51 | 3.51 | 91 | 995.4 |
| 20260504024532 | 3 | 343 | 19.3 | 40.2 | 0.00 | 3.51 | 3.51 | 91 | 995.4 |
| 20260504024014 | 3 | 355 | 25.7 | 40.2 | 0.00 | 3.51 | 3.51 | 91 | 995.2 |
| 20260504023514 | 3 | 330 | 20.9 | 40.2 | 0.00 | 3.51 | 3.51 | 92 | 995.1 |
| 20260504023029 | 3 | 23 | 19.3 | 41.8 | 0.00 | 3.51 | 3.51 | 91 | 995.0 |
| 20260504022514 | 3 | 329 | 22.5 | 43.5 | 0.00 | 3.51 | 3.51 | 91 | 995.0 |
| 20260504022019 | 3 | 356 | 25.7 | 54.7 | 0.00 | 3.51 | 3.51 | 91 | 994.8 |
| 20260504021536 | 2 | 4 | 27.4 | 54.7 | 0.00 | 3.51 | 3.51 | 91 | 994.8 |
| 20260504021017 | 2 | 355 | 25.7 | 45.1 | 0.00 | 3.51 | 3.51 | 91 | 994.7 |
| 20260504020515 | 2 | 340 | 27.4 | 45.1 | 0.00 | 3.51 | 3.51 | 91 | 994.6 |
| 20260504020037 | 2 | 322 | 25.7 | 41.8 | 0.00 | 3.51 | 3.51 | 91 | 994.4 |
| 20260504015517 | 3 | 21 | 25.7 | 43.5 | 0.00 | 3.51 | 3.51 | 91 | 994.4 |
| 20260504015015 | 3 | 5 | 27.4 | 43.5 | 0.00 | 3.51 | 3.51 | 91 | 994.3 |
| 20260504014537 | 3 | 15 | 25.7 | 43.5 | 0.00 | 3.51 | 3.51 | 91 | 994.2 |
| 20260504014014 | 3 | 8 | 25.7 | 51.5 | 0.00 | 3.51 | 3.51 | 91 | 994.2 |
| 20260504013517 | 3 | 352 | 30.6 | 54.7 | 0.00 | 3.51 | 3.51 | 91 | 994.1 |
| 20260504013031 | 3 | 34 | 30.6 | 54.7 | 0.00 | 3.51 | 3.51 | 91 | 994.0 |
| 20260504012516 | 3 | 15 | 32.2 | 56.3 | 0.00 | 3.51 | 3.51 | 91 | 993.9 |
| 20260504012015 | 2 | 25 | 32.2 | 56.3 | 0.00 | 3.51 | 3.51 | 91 | 993.8 |
| 20260504011534 | 2 | 14 | 33.8 | 66.0 | 0.00 | 3.51 | 3.51 | 91 | 993.7 |
| 20260504011014 | 2 | 15 | 37.0 | 66.0 | 0.00 | 3.51 | 3.51 | 92 | 993.6 |
| 20260504010516 | 2 | 29 | 35.4 | 66.0 | 0.03 | 3.51 | 3.51 | 92 | 993.6 |
| 20260504010029 | 2 | 274 | 37.0 | 54.7 | 0.03 | 3.51 | 3.51 | 92 | 993.6 |
| 20260504005514 | 2 | 37 | 37.0 | 54.7 | 0.03 | 3.51 | 3.51 | 92 | 993.4 |
| 20260504005015 | 2 | 341 | 33.8 | 54.7 | 0.03 | 3.51 | 3.51 | 92 | 993.4 |
| 20260504004534 | 2 | 7 | 30.6 | 61.2 | 0.03 | 3.51 | 3.51 | 92 | 993.4 |
| 20260504004014 | 2 | 8 | 32.2 | 64.4 | 0.03 | 3.51 | 3.51 | 92 | 993.4 |
| 20260504003516 | 2 | 10 | 29.0 | 64.4 | 0.03 | 3.51 | 3.51 | 92 | 993.2 |
| 20260504003030 | 2 | 33 | 29.0 | 54.7 | 0.03 | 3.51 | 3.51 | 92 | 993.2 |
| 20260504002517 | 2 | 6 | 22.5 | 54.7 | 0.05 | 3.51 | 3.51 | 92 | 993.1 |
| 20260504002017 | 2 | 11 | 29.0 | 53.1 | 0.08 | 3.51 | 3.51 | 92 | 993.0 |
| 20260504001535 | 2 | 33 | 25.7 | 46.7 | 0.10 | 3.51 | 3.51 | 92 | 993.0 |
| 20260504001015 | 2 | 340 | 29.0 | 51.5 | 0.10 | 3.48 | 3.48 | 92 | 993.0 |
| 20260504000514 | 2 | 42 | 30.6 | 51.5 | 0.13 | 3.48 | 3.48 | 92 | 992.9 |
| 20260504000032 | 2 | 23 | 27.4 | 51.5 | 0.15 | 3.48 | 3.48 | 92 | 992.9 |
| 20260503235519 | 2 | 31 | 27.4 | 45.1 | 0.15 | 3.48 | 3.48 | 92 | 992.9 |
| 20260503235016 | 2 | 54 | 27.4 | 43.5 | 0.15 | 3.48 | 3.48 | 92 | 992.8 |
| 20260503234530 | 2 | 56 | 25.7 | 49.9 | 0.18 | 3.48 | 3.48 | 93 | 992.8 |
| 20260503234016 | 2 | 37 | 25.7 | 49.9 | 0.23 | 3.48 | 3.48 | 92 | 992.8 |
| 20260503233516 | 2 | 360 | 25.7 | 49.9 | 0.28 | 3.48 | 3.48 | 92 | 992.8 |
| 20260503233033 | 2 | 341 | 25.7 | 49.9 | 0.33 | 3.48 | 3.48 | 92 | 992.6 |
| 20260503232515 | 2 | 58 | 25.7 | 49.9 | 0.36 | 3.45 | 3.45 | 92 | 992.5 |